Regional Weather Roundup
Issued by NWS Grand Forks, ND

Home | Current Version | Previous Version | Graphics & Text | Print | Product List | Glossary On
Versions: 1 2 3 4 5 6 7 8 9 10 11 12 13 14 15 16 17 18 19 20 21 22 23 24 25 26 27 28 29 30 31 32 33 34 35 36 37 38 39 40 41 42 43 44 45 46 47 48 49 50
000
ASUS43 KFGF 221410
RWRFGF
PRAIRIE TO PINES  WEATHER ROUNDUP
NATIONAL WEATHER SERVICE EASTERN NORTH DAKOTA/GRAND FORKS ND
900 AM CDT TUE AUG 22 2017

 **SATELLITE DATA USED TO AUGMENT SKY COVER AT AUTOMATED STATIONS**
 *****  WEATHER ACROSS EASTERN NORTH DAKOTA  *****

CITY           SKY/WX    TMP DP  RH WIND       PRES   REMARKS
GRAND FORKS    FAIR      60  50  69 W10       30.05R
GRAND FRKS AFB FAIR      60  47  61 NW10G18   30.06S
DEVILS LAKE    FAIR      59  46  62 W14       30.13R
FARGO          FAIR      60  50  69 NW10      30.07R
WAHPETON ARPT  FAIR      57  46  67 NW10      30.10R
$$

 ***** WEATHER ACROSS CENTRAL AND WESTERN NORTH DAKOTA  *****

CITY           SKY/WX    TMP DP  RH WIND       PRES   REMARKS
BISMARCK       FAIR      56  46  69 CALM      30.20S
MINOT          FAIR      59  42  53 W7        30.17R
JAMESTOWN      FAIR      59  47  64 NW13      30.14R
MINOT AFB      FAIR      59  40  49 W8        30.15S
GARRISON         N/A     59  48  67 N6        30.19R
WILLISTON      FAIR      53  42  66 S6        30.21S
DICKINSON      FAIR      57  45  64 CALM      30.22R
HETTINGER      FAIR      52  44  74 CALM      30.25R
$$

 *****  OTHER AIRPORT OBSERVATIONS IN OUR AREA  *****

CITY           SKY/WX    TMP DP  RH WIND       PRES   REMARKS
WALHALLA       FAIR      59  59 100 NW10G17   30.04S
GRAFTON AIRPOR FAIR      61  48  63 W14       30.05S
VALLEY CITY AR   N/A     57  48  72 NW9       30.14R
CANDO          FAIR      55  52  88 W12       30.14R
CAVALIER APRT  FAIR      61  46  59 NW10G22   30.04R
GWINNER        SUNNY     59  48  67 W9G15     30.13R
SHEYENNE NWR     N/A     59  49  69 NW7       29.95
ROLLA          FAIR      61  45  55 NW9       30.13R
 ***** THE ABOVE OBSERVATIONS ARE NON NWS ARE NOT QUALITY
       CONTROLLED AND MAY MIS-REPORT RAIN FOR SNOW...
$$

  *****  WEATHER ACROSS NORTHERN MINNESOTA  *****

CITY           SKY/WX    TMP DP  RH WIND       PRES   REMARKS
FLAG ISLAND    FAIR      57  52  82 W9        29.92R
WARROAD        FAIR      54  50  87 W10       29.96S
ROSEAU         FAIR      54  48  82 W12       29.98S
HALLOCK        CLOUDY    59  48  67 W8        30.02R
THF RVR FALLS  FAIR      56  47  71 NW10      30.04R
BAUDETTE       PTSUNNY   55  52  89 W8        29.94R
WASKISH        CLOUDY    57  52  82 NW12      29.97R
CROOKSTON      FAIR      57  52  82 W8        30.05S
STEPHEN NDAWN    N/A     57  50  77 NW8         N/A
GREENBUSH NDAW   N/A     55  50  82 W7          N/A
$$
  *****  WEATHER ACROSS CENTRAL AND WEST MINNESOTA  *****

CITY           SKY/WX    TMP DP  RH WIND       PRES   REMARKS
FOSSTON        FAIR      52  48  87 NW8       30.04S
BEMIDJI        FAIR      55  50  82 NW10      30.01R
PARK RAPIDS    FAIR      58  51  78 W13       30.02S
ELBOW LAKE     FAIR      55  51  86 NW7       30.10R
WADENA         FAIR      57  52  82 W10       30.04S
DETROIT LAKES  FAIR      55  46  71 NW13      30.07R
MOORHEAD       FAIR      57  48  72 NW12      30.08R
FERGUS FALLS   FAIR      55  54  94 NW8       30.09R
MORRIS MN      FAIR      59  52  77 W10       30.10R
STAPLES        FAIR      57  54  88 W9        30.04R
$$
  *****  WEATHER ELSEWHERE ACROSS MINNESOTA  *****

CITY           SKY/WX    TMP DP  RH WIND       PRES   REMARKS
DULUTH         FAIR      57  53  86 W10       29.93F
INTRNTL FALLS  PTSUNNY   54  52  93 W6        29.91S
ELY            PTSUNNY   57  52  82 W8        29.89F
CLOQUET        FAIR      57  52  82 W8        29.95S
WHEATON        FAIR      59  48  67 W9        30.12S
BRAINERD       FAIR      59  51  75 W10       30.02S
HIBBING        FAIR      57  52  83 W7        29.93S
ALEXANDRIA     FAIR      59  52  77 W9        30.09R
SAINT CLOUD    FAIR      61  54  77 NW10      30.04R
MINNEAPOLIS    FAIR      63  54  72 NW14      30.03R
$$

  *****  WEATHER ACROSS SOUTH DAKOTA  *****

CITY           SKY/WX    TMP DP  RH WIND       PRES   REMARKS
SIOUX FALLS    FAIR      63  55  75 W6        30.17R
BROOKINGS      FAIR      58  53  84 NW3       30.17R
WATERTOWN      FAIR      60  52  74 NW10      30.15R
HURON          FAIR      55  50  83 W7        30.19R
SISSETON         N/A     64  50  60 W9        30.11R
ABERDEEN       FAIR      59  48  67 W7        30.17R
MITCHELL       FAIR      59  51  75 NW5       30.20R
PIERRE         FAIR      61  51  70 CALM      30.21R
MOBRIDGE       FAIR      56  50  80 N5        30.19R
RAPID CITY     FAIR      58  43  57 SE5       30.25S
$$

  *****  SOME WEATHER IN NEARBY STATES *****

CITY           SKY/WX    TMP DP  RH WIND       PRES   REMARKS
GLASGOW MT     NOT AVBL
GREAT FALLS MT FAIR      56  36  47 W6        30.18R
CHEYENNE WY    CLOUDY    59  54  83 S14       30.36R
SCOTTSBLUFF NE FAIR      58  48  69 E8        30.30S
OMAHA NE       FAIR      68  62  81 NW8       30.15R
DES MOINES IA  FAIR      68  61  78 NW13      30.05R
DAVENPORT IA   CLOUDY    67  63  87 NW9       29.97S
CHICAGO IL     CLOUDY    72  66  81 W13       29.86F
EAU CLAIRE WI  FAIR      64  55  72 NW14G20   29.95R
LA CROSSE WI   FAIR      69  58  67 NW14      29.95R
$$

  *****  SOME NATIONAL WEATHER *****

CITY           SKY/WX    TMP DP  RH WIND       PRES   REMARKS
LA GUARDIA NY  PTSUNNY   80  73  79 S10       29.99F
RALEIGH NC     FAIR      84  75  74 SW6       30.12F HX  92
ATLANTA GA     FAIR      82  73  74 CALM      30.15R
NEW ORLEANS LA PTSUNNY   83  78  85 NE6       30.08R HX  93
OKLAHOMA CITY  PTSUNNY   76  70  82 S8        30.05R
ALBUQUERQUE NM FAIR      66  54  65 N10       30.31R
SALT LAKE CITY PTSUNNY   74  47  38 SE5       30.18R
LOS ANGELES CA MOCLDY    66  64  93 W8        30.00R
BOISE ID       FAIR      63  39  41 SE5       30.11R
SEATTLE WA     FAIR      61  54  77 CALM      30.02R
$$

*** WEATHER ACROSS MANITOBA...SASKATCHEWAN AND ONTARIO ***
                ***ONTARIO***

CITY           SKY/WX    TMP DP  RH WIND       PRES   REMARKS
GERALDTON      LGT RAIN  54  54 100 SW7       29.66F
THUNDER BAY    PTSUNNY   59  52  77 W14G21    29.78R
SIOUX LOOKOUT  PTSUNNY   57  52  82 NW9       29.82S
TORONTO        SHOWER    73  70  88 SW13G21   29.77R
BIG TROUT LK   CLOUDY    50  50 100 N13G22    29.78R FOG
PICKLE LAKE    LGT RAIN  54  52  94 NW7       29.75S
DRYDEN         PTSUNNY   55  52  88 W10G17    29.85S
KENORA         CLOUDY    55  52  88 NW10G18   29.91R
$$
                *** MANITOBA***

CITY           SKY/WX    TMP DP  RH WIND       PRES   REMARKS
BRANDON        SUNNY     55  46  71 W9        30.10R
DAUPHIN        SUNNY     57  46  67 W9        30.08R
ISLAND LAKE    CLOUDY    54  50  87 NW9       29.93R
PILOT MOUND      N/A     55  46  71 W7          N/A
THE PAS        PTSUNNY   61  52  72 N5        30.06R
THOMPSON       CLOUDY    52  45  76 N10       30.06R
WINNIPEG       MOSUNNY   59  54  82 W12       29.99S
LYNN LAKE      CLOUDY    54  50  87 MISG      30.07R
CHURCHILL      PTSUNNY   50  45  81 N13       30.07R
GILLAM         CLOUDY    46  41  81 NE16G23   30.04R
$$
                ***SASKATCHEWAN***

CITY           SKY/WX    TMP DP  RH WIND       PRES   REMARKS
ESTEVAN        MOSUNNY   54  39  58 W7        30.19S
KINDERSLEY     PTSUNNY   57  43  58 S6        30.12S
LLOYDMINSTER   PTSUNNY   57  52  82 W6        30.07S
PRINCE ALBERT  PTSUNNY   50  46  87 E2        30.13R
REGINA         PTSUNNY   54  37  54 CALM      30.18R
YORKTON        SUNNY     57  48  72 W5        30.14R
N. BATTLEFORD  CLOUDY    59  45  58 S3        30.09F
LA RONGE       MOSUNNY   59  52  77 W5        30.05S
SASKATOON      PTSUNNY   54  43  66 SE6       30.13S
SWIFT CURRENT  SUNNY     59  34  38 SW14G20   30.16R
$$
NOTE: THESE ARE AUTOMATED STATIONS WITH LIMITED QUALITY CONTROL
      "FAIR" INDICATES FEW OR NO CLOUDS BELOW 12,000 FEET WITH NO
      SIGNIFICANT WEATHER AND/OR OBSTRUCTIONS TO VISIBILITY.
      SKY/WX - SKY CONDITION AND SIGNIFICANT WEATHER.
      TMP - AIR TEMPERATURE.    DP   - DEWPOINT TEMPERATURE.
      RH  - RELATIVE HUMIDITY.  PRES - PRESSURE.
      HX  - HEAT INDEX.         WCI  - WIND CHILL INDEX.
$




USA.gov is the U.S. government's official web portal to all federal, state and local government web resources and services.